Greensboro, NC

2:30 PM EDT on August 16, 2017 (GMT -0400)
Piedmont Triad International

Weather History for KGSO - September, 2014

Change the Weather History Date:

Thursday, September 18, 2014

  Actual Average Record
Temperature  
Mean Temperature 69 °F 69 °F  
Max Temperature 76 °F 79 °F 97 °F (1921)
Min Temperature 61 °F 60 °F 45 °F (1984)
Degree Days  
Heating Degree Days 0 1  
Month to date heating degree days 0 6  
Since 1 July heating degree days 0 7  
Cooling Degree Days 4 5  
Month to date cooling degree days 168 138  
Year to date cooling degree days 1421 1400  
Growing Degree Days 18 (Base 50)    
Moisture  
Dew Point 62 °F    
Average Humidity 82    
Maximum Humidity 100    
Minimum Humidity 64    
Precipitation  
Precipitation T in 0.14 in 2.28 in (2003)
Month to date precipitation 2.54 2.70  
Year to date precipitation 28.42 31.49  
Sea Level Pressure  
Sea Level Pressure 29.99 in    
Wind  
Wind Speed 3 mph (ENE)    
Max Wind Speed 8 mph    
Max Gust Speed 9 mph    
Visibility 7 miles    
Events Rain    
T = Trace of Precipitation, MM = Missing Value Source: NWS Daily Summary

Daily Weather History Graph

Daily Weather History Graph

Search for Another Location

Airport or City:

Trip Planner

Search our weather history database for the weather conditions in past years. The results will help you decide how hot, cold, wet, or windy it might be!

Date:

Astronomy

Sep. 18, 2014 Rise Set
Actual Time 7:04 AM EDT 7:22 PM EDT
Civil Twilight 6:38 AM EDT 7:48 PM EDT
Nautical Twilight 6:08 AM EDT 8:18 PM EDT
Astronomical Twilight 5:38 AM EDT 8:48 PM EDT
Moon 2:02 AM EDT (9/18) 4:06 PM EDT (9/18)
Length of Visible Light 13h 09m
Length of Day
12h 18m
Waning Crescent, 26% of the Moon is Illuminated
Sep 18
Waning Crescent
Sep 24
New
Oct 1
First Quarter
Oct 8
Full
Oct 15
Last Quarter

Hourly Weather History & Observations

Time (EDT) Temp. Dew Point Humidity Pressure Visibility Wind Dir Wind Speed Gust Speed Precip Events Conditions
12:54 AM 64.0 °F 61.0 °F 90% 29.94 in 7.0 mi North 3.5 mph - N/A   Scattered Clouds
1:41 AM 62.6 °F 60.8 °F 94% 29.96 in 6.0 mi Calm Calm - N/A   Mostly Cloudy
1:54 AM 64.0 °F 61.0 °F 90% 29.94 in 6.0 mi Calm Calm - N/A   Overcast
2:54 AM 63.0 °F 61.0 °F 93% 29.94 in 6.0 mi Calm Calm - N/A   Mostly Cloudy
3:16 AM 62.6 °F 60.8 °F 94% 29.95 in 6.0 mi ENE 3.5 mph - N/A   Partly Cloudy
3:54 AM 62.1 °F 61.0 °F 96% 29.93 in 5.0 mi Calm Calm - N/A   Clear
4:54 AM 62.6 °F 60.8 °F 94% 29.96 in 3.0 mi NNE 3.5 mph - N/A   Scattered Clouds
5:01 AM 62.6 °F 60.8 °F 94% 29.96 in 3.0 mi Calm Calm - N/A   Mostly Cloudy
5:54 AM 62.1 °F 61.0 °F 96% 29.95 in 5.0 mi Calm Calm - N/A   Mostly Cloudy
6:03 AM 62.6 °F 60.8 °F 94% 29.97 in 5.0 mi Calm Calm - N/A   Mostly Cloudy
6:54 AM 61.0 °F 60.1 °F 97% 29.96 in 4.0 mi NNE 3.5 mph - N/A   Overcast
7:07 AM 60.8 °F 60.8 °F 100% 29.99 in 2.0 mi NNE 3.5 mph - N/A   Mostly Cloudy
7:17 AM 60.8 °F 60.8 °F 100% 29.99 in 1.8 mi Calm Calm - N/A   Mostly Cloudy
7:34 AM 60.8 °F 60.8 °F 100% 30.00 in 2.0 mi Calm Calm - N/A   Mostly Cloudy
7:54 AM 62.1 °F 61.0 °F 96% 29.98 in 3.0 mi Calm Calm - N/A   Mostly Cloudy
8:01 AM 62.6 °F 60.8 °F 94% 30.00 in 3.0 mi Calm Calm - N/A   Mostly Cloudy
8:20 AM 62.6 °F 62.6 °F 100% 30.01 in 3.0 mi ENE 3.5 mph - N/A   Mostly Cloudy
8:40 AM 64.4 °F 62.6 °F 94% 30.01 in 2.0 mi ENE 3.5 mph - N/A   Mostly Cloudy
8:54 AM 64.9 °F 63.0 °F 93% 29.99 in 3.0 mi ENE 3.5 mph - N/A   Mostly Cloudy
9:54 AM 69.1 °F 62.1 °F 78% 30.00 in 7.0 mi South 4.6 mph - N/A   Scattered Clouds
10:54 AM 71.1 °F 63.0 °F 75% 30.01 in 10.0 mi Calm Calm - N/A   Mostly Cloudy
11:05 AM 71.6 °F 62.6 °F 73% 30.03 in 10.0 mi Calm Calm - N/A   Mostly Cloudy
11:38 AM 73.4 °F 62.6 °F 69% 30.02 in 10.0 mi Calm Calm - N/A   Mostly Cloudy
11:54 AM 72.0 °F 62.1 °F 71% 30.00 in 10.0 mi Calm Calm - N/A   Mostly Cloudy
12:16 PM 71.6 °F 62.6 °F 73% 30.02 in 10.0 mi NW 5.8 mph - 0.00 in Rain Light Rain
12:46 PM 71.6 °F 64.4 °F 78% 30.02 in 10.0 mi NNW 3.5 mph - 0.00 in   Mostly Cloudy
12:54 PM 71.1 °F 64.9 °F 81% 30.00 in 10.0 mi NNW 3.5 mph - 0.00 in   Mostly Cloudy
1:54 PM 75.0 °F 62.1 °F 64% 29.99 in 10.0 mi Calm Calm - N/A   Mostly Cloudy
2:54 PM 73.0 °F 62.1 °F 68% 29.98 in 10.0 mi Calm Calm - 0.00 in Rain Light Rain
3:54 PM 75.0 °F 62.1 °F 64% 29.97 in 10.0 mi ENE 4.6 mph - 0.00 in   Mostly Cloudy
4:54 PM 75.0 °F 62.1 °F 64% 29.97 in 10.0 mi ENE 5.8 mph - N/A   Mostly Cloudy
5:54 PM 73.9 °F 63.0 °F 68% 29.97 in 10.0 mi ESE 5.8 mph - N/A   Mostly Cloudy
6:54 PM 72.0 °F 63.0 °F 73% 29.97 in 10.0 mi East 4.6 mph - N/A   Overcast
7:54 PM 71.1 °F 63.0 °F 75% 29.99 in 10.0 mi ENE 3.5 mph - N/A   Overcast
8:54 PM 70.0 °F 63.0 °F 78% 30.01 in 10.0 mi East 4.6 mph - N/A   Mostly Cloudy
9:54 PM 69.1 °F 63.0 °F 81% 30.03 in 10.0 mi East 4.6 mph - N/A   Overcast
10:54 PM 69.1 °F 63.0 °F 81% 30.03 in 10.0 mi East 3.5 mph - N/A   Overcast
11:54 PM 70.0 °F 62.1 °F 76% 30.04 in 10.0 mi SE 3.5 mph - 0.00 in   Overcast